Skip Page Navigation
NASA JPL Caltech
NASA Logo - Jet Propulsion Laboratory + View the NASA Portal
+ Center for Near-Earth Object Studies
JPL Home Earth Solar System Stars & Galaxies Technology
JPL Solar System Dynamics
BODIES ORBITS EPHEMERIDES TOOLS PHYSICAL DATA DISCOVERY FAQ SITE MAP
JPL Small-Body Database Browser
Search: [ help ]  
21374 (1997 WS22)
Classification: Amor [NEO]          SPK-ID: 2021374
Ephemeris | Orbit Diagram | Orbital Elements | Mission Design | Physical Parameters | Discovery Circumstances | Close-Approach Data ]

[ hide orbit diagram ]

For accurate long-term ephemerides, please instead use our Horizons system.This orbit viewer was implemented using two-body methods, and hence should not be used for determining accurate long-term trajectories (over several years or decades) or planetary encounter circumstances.


[ revert to old Java-based viewer ]

Orbital Elements at Epoch 2459000.5 (2020-May-31.0) TDB
Reference: JPL 208 (heliocentric ecliptic J2000)
 Element Value Uncertainty (1-sigma)   Units 
e .1205852922700675 2.4041e-08  
a 1.269393185774504 2.0303e-09 au
q 1.116323037462253 3.0512e-08 au
i 23.98065975027352 9.5442e-06 deg
node 59.21489405147771 5.963e-06 deg
peri 197.2058064896342 1.4251e-05 deg
M 66.69063850282703 1.3002e-05 deg
tp 2458903.726812614741
(2020-Feb-24.22681261)
1.8777e-05 TDB
period 522.3873731125891
1.43
1.2533e-06
3.431e-09
d
yr
n .6891437629033387 1.6533e-09 deg/d
Q 1.422463334086755 2.2751e-09 au
  Orbit Determination Parameters
   # obs. used (total)      949  
   # delay obs. used      1  
   # Doppler obs. used      0  
   data-arc span      16837 days (46.10 yr)  
   first obs. used      1974-09-22  
   last obs. used      2020-10-27  
   planetary ephem.      DE431  
   SB-pert. ephem.      SB431-N16  
   condition code      0  
   norm. resid. RMS      .44898  
   source      ORB  
   producer      Otto Matic  
   solution date      2020-Oct-28 06:43:00  

Additional Information
 Earth MOID = .109127 au 
 Jupiter MOID = 3.59887 au 
 T_jup = 4.995 
[ show covariance matrix ]

Ephemeris | Orbit Diagram | Orbital Elements | Mission Design | Physical Parameters | Discovery Circumstances | Close-Approach Data ]

Physical Parameter Table
Parameter Symbol Value Units Sigma Reference Notes
absolute magnitude H 17.4   n/a MPO302195  
rotation period rot_per 3.405 h n/a LCDB (Rev. 2019-August); Warner et al., 2009 Result based on less than full coverage, so that the period may be wrong by 30 percent or so.
Published Reference List:
[Warner, Brian D. (2014) Minor Planet Bull. 41, 213-224.]

21374 (1997 WS22)          Discovered 1997-Nov-24 by Hartley, M. at Siding Spring
Reference: 20010208/Numbers.arcLast Updated: 2004-04-19

[ show close-approach data ]
Ephemeris | Orbit Diagram | Orbital Elements | Mission Design | Physical Parameters | Discovery Circumstances | Close-Approach Data ]
ABOUT SSD CREDITS/AWARDS PRIVACY/COPYRIGHT GLOSSARY LINKS
FirstGov 2020-Oct-31 11:27 UT
(server date/time)  
NASA Home Page
Site Manager:   Ryan S. Park
Webmaster  Alan B. Chamberlin